Location: Unspecified
(0.0000°N, 0.0000°E)
Time: 11:09:34
(UTC+00:00)

SEEDS - Pass Details

Date: 04 October 2021
Orbit: 585 x 601 km, 97.6° (Epoch: 15 October)

Event Time Altitude Azimuth Distance (km) Brightness Sun altitude
Rises 03:27:21 0° 38° (NE) 2,834 ? -35.2°
Reaches altitude 10° 03:30:02 10° 56° (NE) 1,934 ? -34.6°
Maximum altitude 03:33:00 19° 102° (ESE) 1,441 ? -33.8°
Drops below altitude 10° 03:35:59 10° 147° (SSE) 1,936 ? -33.1°
Sets 03:38:40 0° 165° (SSE) 2,839 ? -32.4°
